📊 Raw Sensor Data

Showing records 48301 to 48325 of 85,098 total

ID Distance (ft) Battery V Battery A Int Temp (°F) Int Humid (%) Ext Temp (°F) Solar V RSSI SNR Time Stamp
36810 -- 3.86 -5 49 41 51 0.00 -77 7 04/03/2025 10:15 PM
36809 -- 3.93 -5 50 42 51 0.00 -77 7 04/03/2025 10:00 PM
36808 -- 3.85 -5 50 42 52 0.00 -78 7 04/03/2025 09:45 PM
36807 -- 3.93 -5 50 42 53 0.00 -78 8 04/03/2025 09:30 PM
36806 -- 3.86 -5 50 43 52 0.00 -78 8 04/03/2025 09:15 PM
36805 -- 3.86 -5 51 44 53 0.00 -79 8 04/03/2025 09:00 PM
36804 14.9 3.85 -5 52 44 54 0.00 -78 8 04/03/2025 08:45 PM
36803 -- 3.93 -5 53 45 54 0.00 -78 8 04/03/2025 08:30 PM
36802 -- 3.86 -5 54 45 55 0.00 -78 7 04/03/2025 08:15 PM
36801 -- 3.83 -5 56 47 56 0.00 -78 7 04/03/2025 08:00 PM
36800 -- 3.86 -5 58 47 57 0.50 -78 7 04/03/2025 07:45 PM
36799 -- 3.92 -10 60 47 59 3.20 -78 8 04/03/2025 07:30 PM
36798 -- 3.95 0 64 46 60 4.50 -78 8 04/03/2025 07:16 PM
36797 -- 3.99 9 68 45 62 4.50 -78 9 04/03/2025 07:00 PM
36796 -- 3.94 12 71 44 64 4.50 -76 8 04/03/2025 06:45 PM
36795 15.0 3.92 0 72 43 65 5.10 -76 8 04/03/2025 06:30 PM
36794 15.1 3.92 0 73 42 66 5.10 -75 8 04/03/2025 06:15 PM
36793 15.1 4.01 0 74 42 66 5.10 -77 7 04/03/2025 06:00 PM
36792 15.1 3.92 0 76 40 67 5.10 -76 8 04/03/2025 05:30 PM
36791 15.1 3.92 0 76 40 67 5.10 -75 8 04/03/2025 05:15 PM
36790 15.1 3.92 0 75 40 67 5.10 -75 8 04/03/2025 05:00 PM
36789 15.0 3.92 0 75 40 66 5.10 -77 8 04/03/2025 04:45 PM
36788 15.1 3.92 0 74 41 64 5.10 -76 8 04/03/2025 04:30 PM
36787 15.1 3.92 0 77 38 66 5.10 -75 8 04/03/2025 04:00 PM
36786 -- 3.96 0 77 38 66 5.10 -76 8 04/03/2025 03:45 PM